Terminal Aerodrome Forecast
Issued by NWS Atlanta, GA

Home | Current Version | Previous Version | Text Only | Print | Product List | Glossary On
Versions: 1 2 3 4 5 6 7 8 9 10 11 12 13 14 15 16 17 18 19 20 21 22 23 24 25 26 27 28 29 30 31
000
FTUS42 KFFC 302127 AAB
TAFAHN
TAF AMD
KAHN 302127Z 3021/0118 24005KT P6SM VCSH SCT050
      TEMPO 3021/3023 3SM TSRA BKN035CB
     FM010000 27008KT P6SM BKN060
     FM010600 26006KT 4SM BR SCT010 SCT060
     FM011400 26006KT P6SM SCT060=

USA.gov is the U.S. government's official web portal to all federal, state and local government web resources and services.